User: anonymous   Login
Location: ČR
(50.0000°N, 15.0000°E)
Time: 23:25:46
(UTC+00:00)
Language:

BEESAT 3 - Orbit

View from above orbital plane
View from above orbital plane
View from above satellite
View from above satellite

Ground track
Ground track

The orbit data is extracted from the following two-line orbital elements,

1 39134U 13015E   21340.47141661  .00004003  00000-0  17233-3 0  9996
2 39134  64.8637 332.6035 0025459 309.1185  50.7680 15.23871232477413
Epoch (UTC): 06 December 2021 11:18:50
Eccentricity: 0.0025459
inclination: 64.8637°
perigee height: 476 km
apogee height: 511 km
right ascension of ascending node: 332.6035°
argument of perigee: 309.1185°
revolutions per day: 15.23871232
mean anomaly at epoch: 50.7680°
orbit number at epoch: 47741

The dashed part of the orbit path shows where the satellite is in the earth's shadow,  

DLR